FENGYUN 1C DEB

Satellite information

Favourite Embed

Satellite Type and Status

DEBRISIN ORBIT

Key statistics

Satellite FENGYUN 1C DEB at a glance.

Uptime

9495

Days in orbit

Revolutions

≈ 14.3

Per day

Orbit

SSO

Sun Synchronous Orbit

Inclination

99.0

Latest

Satellite identification and parameters

Extended collection of information and parameters for FENGYUN 1C DEB.

Object identification

Identified? True

Debris? True

Object name: FENGYUN 1C DEB

International designator: 1999-025ENU

Object number (NORAD): 37919

Object ID (CCSDS): 37919

Country: PEOPLES REPUBLIC OF CHINA (PRC)

Current information (Y/N): Y

RCS size: SMALL

Orbital parameters

Period: 100.968 minutes

Inclination: 99.0452 deg

SMA: 7182.62 km

Apoapsis: 838.945 km

Periapsis: 770.025 km

RAAN: 57.7426 deg

Eccentricy: 0.0047977

Argument of periapsis: 289.4955 deg

Mean anomaly: 70.1045 deg

Mean motion: 14.26193304 rev/day

Mean motion (dot): 0.00001257 rev/day2

B* drag term: 0.00053827 1/REarth

Two-line elements (TLE)

Creation date: May 8, 2025, 3:01 a.m.

Reference frame: TEME

Reference center: EARTH

Epoch: May 7, 2025, 12:24 a.m. UTC

TLE line 0: 0 FENGYUN 1C DEB

TLE line 1: 1 37919U 99025ENU 25127.01712912 .00001257 00000-0 53827-3 0 9997

TLE line 2: 2 37919 99.0452 57.7426 0047977 289.4955 70.1045 14.26193304617764

Live tracking on map

Real-time ground track for satellite FENGYUN 1C DEB.

In-orbit conjunctions

A list of the most updated potential collisions computed for object FENGYUN 1C DEB.

Target Orbit TCA Probability of collision Miss distance Type
SL-8 R/B LEO 2025-03-20 04:30:17 0.0002613583 234.0 (m) ROCKET BODY
NOAA 16 DEB SSO 2025-02-12 03:30:45 0.0001104148 66.0 (m) DEBRIS
FENGYUN 1C DEB SSO 2024-11-14 18:33:35 0.0004174772 107.0 (m) DEBRIS
COSMOS 2322 LEO 2024-11-05 19:28:48 0.0001311968 968.0 (m) PAYLOAD
SL-8 R/B LEO 2024-10-31 12:28:47 0.0001862149 657.0 (m) ROCKET BODY

Associated space launch

Chinese polar orbiting meteorological satellite

FENGYUN 1C DEB was lifted into orbit during the mission ‘Long March 4B | Feng Yun 1C’, on board a Long March 4B space rocket.

The launch took place on May 10, 1999, 1:33 a.m. from Launch Complex 7.

For more information about the launch, click the button.

Launch to space Long March 4B | Feng Yun 1C
Long March 4B | Feng Yun 1C

Agency: N/A

Status: Launch Successful

Launch date: May 10, 1999, 1:33 a.m. UTC

Rocket: Long March 4B

Launch pad: Launch Complex 7

Location: Taiyuan Satellite Launch Center, People's Republic of China

...

Latest news about this satellite

There are no fresh news available about this satellite. Check back as we update our databases every day.


Newsletter sign-up

Weekly statistics, charts and insights to help you stay on top of the space industry.